K5RG-3 Weather Reports


Display with metric or nautical units.
time (UTC)temp
F
wind
direction
speed
MPH
gust
MPH
rain 1hr
in
rain 24hr
in
rain mn
in
humidity
%
barometer
mb
20260831124510 79 313 0.0 0.0 0.00 0.00 0.00 91 1013.6
20260831123006 79 313 0.0 0.0 0.00 0.00 0.00 91 1013.5
20260831121507 79 313 1.0 3.0 0.00 0.00 0.00 91 1013.3
20260831120013 79 313 0.0 2.0 0.00 0.00 0.00 91 1013.4
20260831114504 79 313 0.0 0.0 0.00 0.00 0.00 91 1013.1
20260831113004 79 306 0.0 3.0 0.00 0.00 0.00 91 1013.0
20260831111503 79 308 1.0 2.0 0.00 0.00 0.00 91 1013.0
20260831110003 79 311 1.0 3.0 0.00 0.00 0.00 91 1012.9
20260831104504 79 282 1.0 3.0 0.00 0.00 0.00 92 1012.9
20260831103001 79 235 0.0 0.0 0.00 0.00 0.00 92 1013.1
20260831101601 79 235 0.0 2.0 0.00 0.00 0.00 91 1013.0
20260831100106 79 206 0.0 0.0 0.00 0.00 0.00 91 1013.1
20260831094600 79 206 0.0 0.0 0.00 0.00 0.00 91 1013.1
20260831093100 79 206 0.0 0.0 0.00 0.00 0.00 91 1013.0
20260831091557 79 206 0.0 0.0 0.00 0.00 0.00 90 1012.9
20260831090058 79 206 0.0 0.0 0.00 0.00 0.00 90 1012.8
20260831084603 79 206 0.0 0.0 0.00 0.00 0.00 90 1012.9
20260831083055 79 206 0.0 0.0 0.00 0.00 0.00 89 1013.0
20260831081625 80 206 0.0 0.0 0.00 0.00 0.00 89 1013.1
20260831080051 80 206 0.0 0.0 0.00 0.00 0.00 88 1013.3
20260831074549 80 206 0.0 0.0 0.00 0.00 0.00 88 1013.3
20260831073122 81 206 0.0 0.0 0.00 0.00 0.00 88 1013.3
20260831071546 81 206 0.0 0.0 0.00 0.00 0.00 88 1013.2
20260831070046 81 206 0.0 0.0 0.00 0.00 0.00 88 1013.3
20260831064552 81 206 0.0 0.0 0.00 0.00 0.00 88 1013.4
20260831063043 81 163 0.0 0.0 0.00 0.00 0.00 87 1013.5
20260831061542 81 163 0.0 0.0 0.00 0.00 0.00 87 1013.6
20260831060057 81 163 0.0 0.0 0.00 0.00 0.00 87 1013.6
20260831054541 81 163 0.0 0.0 0.00 0.00 0.00 86 1013.5
20260831053038 81 163 0.0 0.0 0.00 0.00 0.00 86 1013.5
20260831051541 81 90 0.0 0.0 0.00 0.00 0.00 85 1013.4
20260831050044 81 89 0.0 0.0 0.00 0.00 0.00 85 1013.4
20260831044536 82 89 0.0 0.0 0.00 0.00 0.00 84 1013.4
20260831043036 82 89 0.0 0.0 0.00 0.00 0.00 83 1013.3
20260831041545 82 89 0.0 0.0 0.00 0.00 0.00 83 1013.3
20260831040047 83 89 0.0 0.0 0.00 0.00 0.00 82 1013.2
20260831034538 83 89 0.0 0.0 0.00 0.00 0.00 81 1013.1
20260831033033 84 89 0.0 0.0 0.00 0.00 0.00 80 1013.0
20260831031533 84 175 0.0 0.0 0.00 0.00 0.00 80 1012.9
20260831030044 84 175 0.0 0.0 0.00 0.00 0.00 80 1012.9
20260831024533 84 156 0.0 1.0 0.00 0.00 0.00 79 1012.7
20260831023033 85 224 0.0 1.0 0.00 0.00 0.00 78 1012.5
20260831021534 85 224 0.0 1.0 0.00 0.00 0.00 78 1012.3
20260831020031 86 224 0.0 1.0 0.00 0.00 0.00 77 1012.1
20260831014535 86 187 0.0 2.0 0.00 0.00 0.00 76 1012.0
20260831013032 86 192 0.0 5.0 0.00 0.00 0.00 75 1012.1
20260831011537 87 158 0.0 0.0 0.00 0.00 0.00 74 1011.9
20260831010029 87 158 0.0 2.0 0.00 0.00 0.00 73 1011.9
20260831004529 88 182 0.0 1.0 0.00 0.00 0.00 71 1011.9
20260831003027 89 129 0.0 2.0 0.00 0.00 0.00 70 1011.8
20260831001533 90 156 0.0 2.0 0.00 0.00 0.00 69 1011.8
20260831000028 91 165 0.0 2.0 0.00 0.00 0.00 67 1011.9
20260830234527 91 151 0.0 2.0 0.00 0.00 0.00 65 1011.8
20260830233033 92 165 0.0 3.0 0.00 0.00 0.00 64 1011.7
20260830231526 92 138 1.0 2.0 0.00 0.00 0.00 63 1011.7
20260830230027 92 129 0.0 2.0 0.00 0.00 0.00 61 1011.8
20260830224525 93 162 1.0 3.0 0.00 0.00 0.00 61 1011.8
20260830223026 93 112 0.0 3.0 0.00 0.00 0.00 60 1011.7
20260830221525 94 151 1.0 4.0 0.00 0.00 0.00 59 1011.6
20260830220039 94 156 0.0 3.0 0.00 0.00 0.00 63 1011.6
20260830214522 94 131 1.0 7.0 0.00 0.00 0.00 65 1011.7
20260830213025 94 123 1.0 3.0 0.00 0.00 0.00 64 1011.8
20260830211522 94 122 0.0 5.0 0.00 0.00 0.00 66 1011.9
20260830210021 94 95 2.0 9.0 0.00 0.00 0.00 65 1012.1
20260830204511 94 104 3.0 9.0 0.00 0.00 0.00 65 1012.3
20260830203007 94 140 0.0 8.0 0.00 0.00 0.00 65 1012.4
20260830201503 94 107 3.0 8.0 0.00 0.00 0.00 66 1012.6
20260830200103 94 99 3.0 15.0 0.00 0.00 0.00 67 1012.7
20260830194555 93 71 5.0 13.0 0.00 0.00 0.00 67 1013.0
20260830193052 93 65 4.0 14.0 0.00 0.00 0.00 69 1013.2
20260830191617 93 123 1.0 7.0 0.00 0.00 0.00 69 1013.4
20260830190054 93 101 7.0 12.0 0.00 0.00 0.00 70 1013.7
20260830184540 92 91 0.0 11.0 0.00 0.00 0.00 70 1013.9
20260830183036 94 90 0.0 2.0 0.00 0.00 0.00 66 1014.0
20260830181533 94 96 0.0 2.0 0.00 0.00 0.00 60 1014.3
20260830180037 93 326 0.0 3.0 0.00 0.00 0.00 59 1014.5
20260830174531 93 116 0.0 6.0 0.00 0.00 0.00 63 1014.6
20260830173023 92 44 0.0 3.0 0.00 0.00 0.00 64 1015.0
20260830171521 92 138 0.0 2.0 0.00 0.00 0.00 66 1015.1
20260830170018 91 264 1.0 3.0 0.00 0.00 0.00 67 1015.1
20260830164514 91 178 0.0 3.0 0.00 0.00 0.00 67 1015.1
20260830163025 90 187 0.0 2.0 0.00 0.00 0.00 70 1015.2
20260830161509 90 89 0.0 3.0 0.00 0.00 0.00 71 1015.3
20260830160008 89 17 0.0 3.0 0.00 0.00 0.00 73 1015.2
20260830154507 89 87 0.0 2.0 0.00 0.00 0.00 73 1015.2
20260830153003 88 283 2.0 4.0 0.00 0.00 0.00 74 1015.3
20260830151502 87 182 0.0 4.0 0.00 0.00 0.00 76 1015.3
20260830150105 88 201 0.0 4.0 0.00 0.00 0.00 76 1015.4
20260830144608 87 204 0.0 3.0 0.00 0.00 0.00 79 1015.3
20260830143054 86 285 0.0 4.0 0.00 0.00 0.00 80 1015.4
20260830141551 85 40 0.0 3.0 0.00 0.00 0.00 82 1015.3
20260830140051 84 6 0.0 0.0 0.00 0.00 0.00 84 1015.2
20260830134542 83 265 0.0 0.0 0.00 0.00 0.00 86 1015.0
20260830133044 81 294 0.0 0.0 0.00 0.00 0.00 89 1014.9
20260830131550 80 294 0.0 0.0 0.00 0.00 0.00 91 1014.8
20260830130040 79 294 0.0 0.0 0.00 0.00 0.00 92 1014.7